Weather History for Abingdon, VA

Change the Weather History Date:

Saturday, November 9, 2013

  Actual Average (KTRI) Record (KTRI)
Temperature  
Mean Temperature 42 °F 49 °F  
Max Temperature 55 °F 62 °F 78 °F (1975)
Min Temperature 29 °F 36 °F 21 °F (1951)
Degree Days  
Heating Degree Days 23 16  
Month to date heating degree days 134  
Since 1 July heating degree days 469  
Cooling Degree Days 0 0  
Month to date cooling degree days 0  
Year to date cooling degree days 980  
Moisture  
Dew Point 29 °F    
Average Humidity 62    
Maximum Humidity 87    
Minimum Humidity 37    
Precipitation  
Precipitation 0.00 in 0.10 in 1.51 in (2000)
Month to date precipitation 0.83  
Year to date precipitation 35.37  
Snow  
Snow 0.00 in 0.00 in - ()
Month to date snowfall 0.0  
Since 1 July snowfall 0.1  
Since 1 September snowfall 0.1  
Snow Depth -    
Sea Level Pressure  
Sea Level Pressure 30.25 in    
Wind  
Wind Speed 5 mph (SW)    
Max Wind Speed 14 mph    
Max Gust Speed 21 mph    
Visibility 10 miles    
Events      
T = Trace of Precipitation, MM = Missing Value Source: NWS Daily Summary

Daily Weather History Graph

Daily Weather History Graph

Search for Another Location

Airport:

Trip Planner

Search our weather history database for the weather conditions in past years. The results will help you decide how hot, cold, wet, or windy it might be!

Date:

Astronomy

Nov. 09, 2013 Rise Set
Actual Time 7:00 AM EST 5:23 PM EST
Civil Twilight 6:32 AM EST 5:50 PM EST
Nautical Twilight 6:01 AM EST 6:21 PM EST
Astronomical Twilight 5:31 AM EST 6:52 PM EST
Moon 12:37 PM EST (11/9) 11:49 PM EST (11/9)
Length of Visible Light 11h 17m
Length of Day
10h 23m
Waxing Crescent, 44% of the Moon is Illuminated
Nov 9
Waxing Crescent
Nov 10
First Quarter
Nov 17
Full
Nov 25
Last Quarter
Dec 2
New

Hourly Weather History & Observations

Time (EST) Temp. Windchill Dew Point Humidity Pressure Visibility Wind Dir Wind Speed Gust Speed Precip Events Conditions
12:15 AM 33.1 °F 30.0 °F 26.6 °F 77% 30.29 in 10.0 mi ENE 3.5 mph - N/A   Clear
12:35 AM 34.5 °F 29.4 °F 26.6 °F 73% 30.28 in 10.0 mi East 5.8 mph - N/A   Clear
12:55 AM 35.8 °F 30.9 °F 25.9 °F 67% 30.27 in 10.0 mi ENE 5.8 mph - N/A   Clear
1:15 AM 33.1 °F 27.7 °F 27.0 °F 78% 30.27 in 10.0 mi ESE 5.8 mph - N/A   Clear
1:35 AM 32.4 °F 26.9 °F 26.6 °F 79% 30.27 in 10.0 mi East 5.8 mph - N/A   Clear
1:55 AM 32.0 °F 25.6 °F 26.6 °F 80% 30.27 in 10.0 mi East 6.9 mph - N/A   Clear
2:15 AM 32.4 °F - 26.6 °F 79% 30.27 in 10.0 mi Calm Calm - N/A   Clear
2:35 AM 32.0 °F 26.4 °F 26.6 °F 80% 30.27 in 10.0 mi East 5.8 mph - N/A   Clear
2:55 AM 32.0 °F 27.5 °F 26.6 °F 80% 30.27 in 10.0 mi ESE 4.6 mph - N/A   Clear
3:15 AM 32.9 °F 28.5 °F 26.1 °F 76% 30.27 in 10.0 mi East 4.6 mph - N/A   Clear
3:35 AM 33.4 °F 30.4 °F 25.7 °F 73% 30.27 in 10.0 mi East 3.5 mph - N/A   Clear
3:55 AM 32.0 °F - 25.9 °F 78% 30.27 in 10.0 mi Calm Calm - N/A   Clear
4:15 AM 30.7 °F 24.9 °F 26.1 °F 83% 30.28 in 10.0 mi ESE 5.8 mph - N/A   Clear
4:35 AM 31.1 °F 26.4 °F 26.6 °F 83% 30.27 in 10.0 mi ESE 4.6 mph - N/A   Clear
4:55 AM 29.8 °F 23.9 °F 26.4 °F 87% 30.28 in 10.0 mi East 5.8 mph - N/A   Clear
5:15 AM 32.0 °F 28.7 °F 26.2 °F 79% 30.28 in 10.0 mi ESE 3.5 mph - N/A   Clear
5:35 AM 32.2 °F 24.4 °F 26.2 °F 79% 30.27 in 10.0 mi East 9.2 mph - N/A   Clear
5:55 AM 33.4 °F 28.1 °F 26.1 °F 74% 30.27 in 10.0 mi East 5.8 mph - N/A   Clear
6:15 AM 32.2 °F - 25.7 °F 77% 30.28 in 10.0 mi Calm Calm - N/A   Clear
6:35 AM 31.3 °F 26.6 °F 26.1 °F 81% 30.28 in 10.0 mi ESE 4.6 mph - N/A   Clear
6:55 AM 30.0 °F 24.1 °F 25.9 °F 85% 30.27 in 10.0 mi East 5.8 mph - N/A   Clear
7:15 AM 30.0 °F 26.5 °F 26.2 °F 86% 30.28 in 10.0 mi ESE 3.5 mph - N/A   Clear
7:35 AM 30.9 °F - 26.4 °F 83% 30.28 in 10.0 mi Calm Calm - N/A   Clear
7:55 AM 32.0 °F 28.7 °F 27.5 °F 83% 30.28 in 10.0 mi East 3.5 mph - N/A   Clear
8:15 AM 33.3 °F - 29.5 °F 86% 30.29 in 10.0 mi Calm Calm - N/A   Clear
8:35 AM 35.1 °F 32.2 °F 29.5 °F 80% 30.30 in 10.0 mi ESE 3.5 mph - N/A   Clear
8:55 AM 37.0 °F 32.4 °F 29.1 °F 73% 30.30 in 10.0 mi East 5.8 mph - N/A   Clear
9:15 AM 39.0 °F 36.8 °F 28.8 °F 67% 30.30 in 10.0 mi SE 3.5 mph - N/A   Clear
9:35 AM 41.2 °F 39.2 °F 30.7 °F 66% 30.30 in 10.0 mi ESE 3.5 mph - N/A   Clear
9:55 AM 43.0 °F 40.3 °F 30.4 °F 61% 30.30 in 10.0 mi East 4.6 mph - N/A   Clear
10:15 AM 45.7 °F - 30.7 °F 56% 30.30 in 10.0 mi Calm Calm - N/A   Clear
10:35 AM 47.1 °F - 28.0 °F 48% 30.29 in 10.0 mi Calm Calm - N/A   Clear
10:55 AM 50.4 °F - 30.7 °F 47% 30.28 in 10.0 mi Calm Calm - N/A   Clear
11:15 AM 52.2 °F - 29.5 °F 42% 30.27 in 10.0 mi SW 5.8 mph - N/A   Clear
11:35 AM 52.9 °F - 28.6 °F 39% 30.27 in 10.0 mi West 5.8 mph - N/A   Clear
11:55 AM 53.2 °F - 28.2 °F 38% 30.26 in 10.0 mi WSW 9.2 mph - N/A   Clear
12:15 PM 53.6 °F - 27.7 °F 37% 30.26 in 10.0 mi WSW 11.5 mph - N/A   Clear
12:35 PM 52.9 °F - 28.0 °F 38% 30.25 in 10.0 mi West 10.4 mph - N/A   Clear
12:55 PM 53.1 °F - 28.2 °F 38% 30.25 in 10.0 mi West 8.1 mph - N/A   Clear
1:15 PM 53.1 °F - 28.4 °F 39% 30.24 in 10.0 mi West 10.4 mph 17.3 mph N/A   Clear
1:35 PM 54.3 °F - 29.3 °F 38% 30.24 in 10.0 mi West 6.9 mph - N/A   Clear
1:55 PM 55.0 °F - 29.8 °F 38% 30.23 in 10.0 mi West 10.4 mph - N/A   Clear
2:15 PM 55.2 °F - 30.2 °F 38% 30.23 in 10.0 mi West 11.5 mph - N/A   Clear
2:35 PM 54.7 °F - 29.5 °F 38% 30.23 in 10.0 mi West 13.8 mph 20.7 mph N/A   Clear
2:55 PM 54.7 °F - 29.7 °F 38% 30.22 in 10.0 mi West 13.8 mph 18.4 mph N/A   Clear
3:15 PM 54.9 °F - 29.3 °F 38% 30.22 in 10.0 mi West 12.7 mph 20.7 mph N/A   Clear
3:35 PM 54.0 °F - 28.8 °F 38% 30.22 in 10.0 mi West 13.8 mph 19.6 mph N/A   Clear
3:55 PM 54.9 °F - 29.5 °F 38% 30.23 in 10.0 mi West 10.4 mph 18.4 mph N/A   Clear
4:15 PM 54.1 °F - 29.7 °F 39% 30.23 in 10.0 mi West 12.7 mph 19.6 mph N/A   Clear
4:35 PM 53.1 °F - 28.9 °F 40% 30.23 in 10.0 mi West 9.2 mph 18.4 mph N/A   Clear
4:55 PM 52.2 °F - 29.3 °F 41% 30.23 in 10.0 mi West 8.1 mph - N/A   Clear
5:15 PM 51.1 °F - 30.0 °F 44% 30.22 in 10.0 mi West 8.1 mph - N/A   Clear
5:35 PM 50.0 °F - 29.7 °F 46% 30.22 in 10.0 mi West 5.8 mph - N/A   Clear
5:55 PM 48.7 °F - 29.5 °F 47% 30.22 in 10.0 mi West 5.8 mph - N/A   Clear
6:15 PM 47.8 °F - 30.0 °F 50% 30.22 in 10.0 mi WSW 4.6 mph - N/A   Clear
6:35 PM 46.9 °F - 30.0 °F 52% 30.22 in 10.0 mi West 4.6 mph - N/A   Clear
6:55 PM 46.2 °F - 30.4 °F 54% 30.21 in 10.0 mi Calm Calm - N/A   Clear
7:15 PM 44.6 °F - 30.4 °F 57% 30.21 in 10.0 mi Calm Calm - N/A   Clear
7:35 PM 42.8 °F 40.1 °F 30.9 °F 63% 30.20 in 10.0 mi WSW 4.6 mph - N/A   Clear
7:55 PM 44.1 °F - 30.9 °F 60% 30.21 in 10.0 mi Calm Calm - N/A   Clear
8:15 PM 41.9 °F 40.0 °F 31.1 °F 66% 30.21 in 10.0 mi WNW 3.5 mph - N/A   Clear
8:35 PM 43.2 °F 41.5 °F 31.3 °F 63% 30.22 in 10.0 mi NNW 3.5 mph - N/A   Clear
9:35 PM 40.1 °F - 32.0 °F 73% 30.23 in 10.0 mi Calm Calm - N/A   Clear
9:55 PM 43.2 °F - 32.0 °F 65% 30.24 in 10.0 mi Calm Calm - N/A   Mostly Cloudy
10:15 PM 43.3 °F 41.7 °F 32.0 °F 64% 30.23 in 10.0 mi West 3.5 mph - N/A   Mostly Cloudy
10:35 PM 43.2 °F - 32.0 °F 65% 30.23 in 10.0 mi Calm Calm - N/A   Scattered Clouds
10:55 PM 41.9 °F 39.0 °F 32.0 °F 68% 30.23 in 10.0 mi WNW 4.6 mph - N/A   Scattered Clouds
11:15 PM 41.2 °F 37.3 °F 32.0 °F 70% 30.23 in 10.0 mi West 5.8 mph - N/A   Clear
11:35 PM 42.3 °F 39.4 °F 32.0 °F 67% 30.24 in 10.0 mi WNW 4.6 mph - N/A   Scattered Clouds
11:55 PM 41.5 °F 39.6 °F 32.0 °F 69% 30.24 in 10.0 mi WNW 3.5 mph - N/A   Mostly Cloudy